Wind_Speed
16 17 17 16 16 16 16 16 16 16 15 15 15 15 15 14 14 13 12 13 13 13 14 14 15 14 14 14 14 15 15 15 16 16 16 16 16 16 16 15 15 15 15
17 17 18 17 17 17 18 18 18 17 17 17 17 17 17 15 15 15 14 14 15 15 15 15 16 16 16 16 16 16 16 16 16 17 17 17 17 17 17 17 17 16 16
18 18 18 18 19 19 20 20 20 20 19 19 19 19 18 17 17 17 16 16 16 17 17 17 17 17 17 17 18 18 18 17 17 17 19 19 19 19 19 19 19 19 18
19 20 20 20 21 21 22 22 22 22 21 21 21 20 20 19 19 19 19 18 18 19 19 19 19 18 18 18 18 18 19 19 19 19 19 20 20 20 20 20 20 20 20
21 22 22 22 23 23 23 24 24 24 23 23 22 22 22 22 22 21 21 20 20 21 21 21 20 20 19 19 19 19 19 20 20 20 20 21 21 21 21 21 22 21 21
23 23 24 24 24 24 25 25 25 25 25 25 24 24 24 24 24 24 23 23 22 22 22 21 21 21 20 21 21 21 21 21 22 22 22 22 22 23 23 22 22 22 22
26 26 26 26 27 27 26 26 26 26 26 26 26 26 26 26 26 25 25 25 25 24 24 24 23 23 22 22 23 23 23 23 24 24 24 24 24 24 25 25 24 24 24
28 28 27 27 28 28 27 27 27 26 27 27 27 27 27 27 27 27 26 26 25 25 25 25 26 25 24 25 25 24 24 25 25 25 25 25 25 26 26 26 25 25 25
29 29 28 28 28 28 28 28 27 27 27 27 28 28 28 28 28 28 28 27 27 26 26 26 27 27 27 27 27 27 26 26 26 27 27 27 27 28 28 27 27 26 26
29 30 29 29 29 29 29 28 28 28 28 28 28 28 28 28 28 28 28 28 28 28 27 28 28 28 29 29 29 29 29 29 29 29 29 28 28 29 30 29 29 28 28
29 30 30 30 29 29 29 29 28 28 28 28 28 28 29 29 29 29 29 29 29 29 29 29 30 30 31 31 32 31 31 31 31 31 31 31 31 31 31 31 30 29 29
30 30 31 31 30 30 30 30 30 29 28 28 29 29 28 29 30 30 30 30 31 30 30 31 31 31 32 33 33 32 32 33 33 32 33 33 33 32 32 32 31 31 31
30 30 30 30 30 30 30 30 30 30 29 29 29 29 29 29 30 30 31 31 31 31 32 32 32 32 32 32 33 34 34 34 34 34 34 34 34 33 33 33 32 32 32
31 30 30 30 30 30 30 30 29 29 30 30 30 30 30 30 30 31 31 31 31 32 32 32 33 33 33 33 34 34 34 34 35 35 35 34 34 34 33 33 33 33 32
31 31 31 30 30 30 30 30 30 30 30 30 30 30 30 30 30 31 31 31 31 32 32 32 32 32 33 34 34 35 35 35 35 36 36 35 35 34 34 34 35 34 33
31 31 31 31 30 30 30 31 30 31 31 30 30 30 29 30 30 30 31 31 31 32 32 32 32 33 33 33 34 34 34 34 35 35 35 36 35 35 35 35 35 34 34
32 32 32 32 31 30 30 30 30 30 30 30 30 29 29 29 29 29 30 30 31 32 32 31 32 32 33 33 34 34 34 35 35 35 35 35 35 35 34 35 35 34 34
32 32 32 32 31 30 30 31 31 30 30 30 30 29 29 29 29 30 31 31 31 31 31 31 32 33 33 33 34 34 34 34 35 35 35 34 34 34 33 33 33 33 33
33 33 33 32 32 31 31 32 32 31 30 30 29 29 30 30 30 30 31 31 31 31 31 32 32 32 32 32 32 32 32 33 34 34 34 33 33 33 32 32 32 32 32
33 33 33 33 33 32 32 31 31 31 30 30 30 30 30 30 30 30 30 30 30 31 31 31 31 31 31 31 30 30 31 31 32 32 32 32 33 33 33 32 32 33 33
32 32 32 33 32 31 31 31 32 31 30 30 30 30 30 30 30 29 30 30 31 31 30 30 31 31 30 30 30 30 30 30 30 30 30 31 31 32 33 33 33 34 34
32 32 32 32 31 31 31 32 32 31 30 30 30 30 30 30 29 29 29 29 29 29 29 29 29 29 29 29 29 29 30 30 30 30 30 30 30 31 32 32 32 33 33
31 31 30 30 30 30 30 31 31 30 30 30 30 30 30 29 29 28 28 28 28 28 28 28 28 27 27 28 29 28 28 28 28 29 29 29 29 30 30 31 31 32 33
30 30 30 30 31 30 30 29 28 28 29 29 29 29 28 28 28 27 26 26 27 28 28 27 27 27 27 28 28 27 27 27 27 27 27 28 28 29 29 30 31 32 32
29 29 30 30 30 30 29 27 27 27 27 28 28 28 28 28 28 27 27 27 27 28 27 27 27 28 27 28 27 26 27 27 27 27 27 28 28 29 29 30 30 31 31
28 29 29 29 29 28 27 27 26 27 27 27 28 27 27 26 26 26 26 26 27 27 28 28 28 28 28 28 27 26 26 26 26 27 27 27 27 28 29 29 30 30 30
Wind_Direction
305 306 308 306 306 306 307 307 310 312 311 310 310 310 309 305 301 295 290 286 284 284 282 283 283 284 284 285 286 281 280 281 279 277 276 277 279 282 285 288 288 289 288
306 304 306 307 305 304 303 304 305 306 306 305 304 303 303 303 302 298 292 285 283 283 282 281 283 283 282 283 282 279 280 280 279 276 275 275 278 280 283 286 285 286 286
307 305 304 303 303 303 302 302 302 303 302 301 301 302 299 298 298 297 292 287 284 283 283 283 283 283 282 280 278 278 278 279 278 277 275 274 275 278 281 283 284 284 284
305 305 303 302 303 304 302 302 301 300 299 299 298 297 296 295 294 293 291 288 285 283 282 282 282 282 281 279 278 278 277 276 276 276 276 275 276 277 279 280 281 281 280
303 304 304 304 303 303 302 302 301 299 296 295 295 295 294 293 291 289 289 286 284 283 281 279 277 277 278 278 279 279 277 276 275 276 277 276 276 275 276 278 280 281 281
302 302 302 302 303 302 301 299 298 296 293 292 291 292 293 293 290 286 285 284 282 281 280 278 276 275 275 276 277 277 278 278 278 277 276 275 275 276 276 278 280 281 281
299 299 299 299 299 299 298 297 296 295 292 291 290 289 289 290 289 287 284 282 280 279 279 278 277 276 275 275 276 276 277 278 277 276 276 276 276 276 278 279 280 280 281
296 297 297 298 298 297 296 295 294 294 292 290 289 289 287 287 286 285 284 282 279 278 276 276 276 275 273 274 274 275 277 277 276 275 276 276 277 279 280 281 280 280 281
295 296 296 296 296 296 295 294 293 293 293 291 289 288 287 286 285 284 283 281 279 277 275 275 275 274 273 273 274 273 274 275 274 275 275 275 276 277 280 280 281 282 281
293 295 296 295 296 296 296 294 292 292 293 292 290 288 286 285 284 283 281 280 278 277 276 275 275 275 274 273 273 272 273 274 274 274 274 274 274 276 278 279 280 281 281
293 294 295 295 296 297 296 294 293 293 292 291 291 289 286 285 283 281 280 279 278 276 275 276 276 276 275 273 273 273 273 272 272 273 273 273 273 275 277 278 280 280 280
292 293 294 294 295 296 297 295 293 293 292 290 290 290 287 284 282 280 279 279 277 276 275 275 276 276 275 274 273 273 273 272 272 272 273 273 274 275 276 277 278 279 280
291 292 294 295 295 296 296 297 296 294 292 290 289 289 287 285 283 282 280 279 277 275 274 274 275 275 276 275 273 273 273 273 273 274 274 274 274 275 276 278 278 278 279
291 291 293 294 295 295 296 297 297 296 293 291 289 289 288 286 284 283 281 279 278 276 275 274 274 275 276 275 274 273 272 272 273 273 274 275 276 276 277 278 278 278 277
292 291 292 293 294 295 295 296 296 297 295 293 292 291 290 288 286 283 282 281 279 278 276 276 275 275 276 276 275 274 272 271 271 273 274 274 274 275 276 277 277 276 276
292 291 292 293 293 293 294 294 296 296 295 294 294 293 291 290 288 286 284 283 282 280 278 277 276 275 275 275 275 274 273 273 272 272 274 275 274 275 275 276 275 274 275
291 292 293 293 293 293 293 294 294 294 294 294 293 293 292 290 289 287 286 285 284 281 279 278 277 277 276 275 273 272 273 273 272 272 273 274 275 275 275 275 275 274 275
290 291 292 292 293 292 292 294 294 294 293 293 293 293 293 291 290 289 288 286 286 284 282 281 278 277 278 277 274 272 272 274 274 274 273 273 275 276 276 277 276 274 274
289 290 291 291 292 292 293 294 294 293 293 293 292 292 292 291 290 289 289 288 287 287 285 284 281 279 278 279 277 275 273 274 276 275 274 273 273 275 277 276 275 275 274
290 290 290 291 291 292 293 294 295 294 294 293 292 292 292 292 291 289 288 288 289 289 288 286 283 282 281 280 279 278 276 276 276 275 275 274 273 274 275 275 275 274 273
290 290 290 290 291 292 293 294 296 295 295 294 294 294 293 292 291 289 289 288 288 288 288 287 284 284 282 281 280 279 278 277 275 274 275 274 275 275 275 275 275 274 273
290 291 292 291 291 292 292 293 294 295 296 295 295 295 295 294 293 291 290 289 289 288 287 287 286 284 283 282 281 280 278 276 274 274 275 275 275 275 274 275 275 275 275
292 292 292 293 293 293 293 293 293 294 294 294 295 295 295 294 293 292 291 290 289 289 290 290 289 288 287 286 283 280 279 277 276 274 274 274 275 275 275 274 276 277 277
292 292 292 292 293 293 294 294 295 295 295 296 296 296 295 295 294 293 293 293 291 291 291 291 290 290 289 289 287 283 282 281 280 278 276 276 276 275 275 275 276 278 278
293 292 292 292 291 292 293 293 294 294 294 295 296 296 295 294 292 292 293 293 291 291 291 290 290 289 289 290 288 286 284 282 280 279 276 276 277 276 275 275 276 278 279
295 294 293 292 292 292 292 293 294 294 295 296 298 298 298 296 294 293 294 293 292 293 292 291 289 288 288 288 287 288 286 284 282 280 278 277 278 278 277 277 277 278 280
Height
5892 5890 5888 5886 5884 5883 5881 5879 5876 5874 5872 5870 5868 5866 5864 5863 5861 5859 5858 5857 5857 5856 5855 5855 5854 5853 5852 5851 5851 5850 5850 5849 5849 5849 5849 5848 5848 5847 5847 5846 5845 5844 5843
5889 5887 5885 5883 5881 5879 5877 5875 5873 5871 5869 5867 5865 5863 5861 5859 5858 5856 5855 5854 5853 5852 5851 5851 5850 5849 5848 5847 5847 5846 5845 5845 5844 5844 5844 5843 5843 5842 5842 5841 5841 5840 5839
5885 5883 5881 5879 5877 5875 5873 5871 5868 5866 5864 5862 5860 5859 5857 5855 5854 5852 5851 5849 5848 5848 5847 5846 5845 5844 5843 5843 5842 5841 5840 5840 5840 5839 5839 5838 5838 5837 5837 5836 5835 5834 5834
5881 5879 5876 5874 5872 5870 5868 5865 5863 5861 5859 5857 5855 5853 5852 5850 5849 5847 5846 5845 5843 5842 5842 5841 5840 5839 5838 5837 5837 5836 5835 5835 5834 5834 5833 5833 5832 5832 5831 5830 5829 5828 5828
5876 5874 5871 5869 5867 5864 5862 5860 5857 5855 5853 5851 5849 5847 5846 5844 5843 5841 5840 5839 5838 5837 5836 5835 5834 5834 5833 5832 5831 5831 5830 5829 5829 5828 5827 5827 5826 5826 5825 5824 5824 5823 5822
5871 5868 5866 5863 5861 5858 5856 5853 5851 5848 5846 5844 5843 5841 5839 5838 5836 5835 5833 5832 5831 5830 5829 5828 5828 5827 5827 5826 5825 5825 5824 5824 5823 5822 5821 5821 5820 5819 5819 5818 5817 5816 5816
5865 5862 5860 5857 5854 5852 5849 5846 5843 5841 5839 5837 5835 5833 5832 5830 5829 5828 5826 5825 5824 5823 5822 5821 5821 5820 5820 5819 5819 5818 5818 5817 5816 5816 5815 5814 5813 5813 5812 5811 5810 5809 5808
5858 5855 5852 5850 5847 5845 5842 5839 5836 5833 5831 5829 5827 5825 5824 5822 5821 5820 5819 5817 5816 5815 5814 5814 5813 5813 5812 5812 5811 5811 5810 5809 5809 5808 5808 5807 5806 5805 5804 5803 5802 5802 5801
5850 5847 5845 5842 5839 5837 5834 5831 5828 5825 5823 5821 5819 5817 5815 5814 5813 5811 5810 5809 5808 5807 5806 5806 5805 5805 5804 5804 5803 5802 5802 5801 5800 5800 5800 5799 5798 5797 5796 5795 5794 5793 5793
5843 5840 5837 5835 5832 5829 5826 5823 5820 5818 5815 5813 5811 5809 5807 5806 5804 5803 5801 5800 5800 5799 5798 5797 5797 5796 5795 5794 5794 5793 5793 5793 5792 5791 5791 5790 5790 5789 5787 5786 5786 5785 5784
5835 5832 5829 5826 5823 5821 5818 5815 5812 5810 5807 5805 5802 5800 5798 5797 5795 5794 5792 5791 5790 5790 5789 5788 5788 5787 5786 5785 5784 5784 5784 5783 5782 5782 5781 5781 5780 5780 5779 5778 5777 5776 5775
5827 5824 5821 5818 5815 5812 5810 5807 5804 5801 5799 5796 5794 5791 5789 5787 5786 5785 5784 5782 5781 5780 5780 5779 5778 5778 5776 5775 5775 5775 5774 5773 5772 5772 5772 5771 5771 5770 5770 5769 5768 5767 5766
5819 5816 5813 5810 5807 5804 5801 5798 5795 5793 5790 5788 5785 5783 5780 5778 5777 5775 5774 5773 5771 5771 5770 5769 5768 5767 5767 5766 5765 5765 5764 5763 5763 5762 5762 5761 5761 5760 5760 5759 5758 5757 5756
5810 5808 5805 5802 5799 5796 5793 5790 5787 5784 5781 5779 5777 5774 5772 5770 5768 5766 5764 5763 5762 5761 5760 5759 5758 5757 5756 5756 5755 5754 5754 5753 5752 5752 5751 5751 5750 5750 5749 5749 5748 5747 5746
5802 5799 5796 5793 5790 5787 5784 5781 5778 5776 5773 5770 5768 5765 5763 5761 5758 5756 5754 5753 5752 5751 5750 5749 5748 5747 5746 5745 5744 5744 5743 5743 5742 5742 5741 5740 5740 5739 5739 5738 5737 5736 5735
5793 5790 5787 5784 5781 5779 5776 5773 5770 5768 5765 5762 5759 5756 5754 5752 5749 5747 5745 5744 5742 5741 5740 5739 5738 5737 5736 5735 5734 5733 5732 5732 5731 5731 5730 5730 5729 5728 5727 5727 5726 5725 5725
5783 5781 5778 5775 5772 5770 5767 5764 5762 5759 5756 5753 5751 5748 5745 5743 5741 5738 5736 5735 5733 5731 5730 5729 5728 5727 5725 5724 5723 5722 5721 5721 5720 5719 5719 5719 5718 5717 5716 5715 5715 5714 5714
5774 5772 5769 5766 5764 5761 5758 5756 5753 5750 5747 5744 5742 5739 5737 5734 5732 5729 5727 5726 5724 5722 5721 5719 5718 5716 5715 5714 5712 5712 5711 5710 5709 5709 5708 5708 5707 5706 5706 5705 5704 5704 5704
5765 5763 5760 5757 5755 5752 5750 5747 5744 5741 5738 5735 5733 5731 5728 5725 5723 5721 5718 5716 5714 5713 5711 5709 5708 5706 5705 5703 5702 5701 5700 5700 5699 5698 5697 5697 5697 5696 5695 5694 5694 5694 5693
5756 5753 5751 5748 5746 5743 5740 5738 5735 5732 5729 5727 5724 5722 5719 5717 5714 5712 5709 5707 5705 5703 5701 5699 5697 5696 5694 5693 5692 5691 5690 5689 5688 5687 5686 5686 5686 5685 5685 5684 5684 5683 5682
5746 5744 5742 5739 5736 5734 5732 5729 5726 5723 5721 5718 5715 5713 5710 5707 5705 5703 5700 5698 5696 5694 5692 5689 5688 5686 5684 5683 5682 5680 5679 5678 5677 5677 5676 5676 5675 5675 5675 5674 5673 5672 5671
5737 5734 5732 5730 5727 5725 5723 5720 5717 5715 5712 5709 5707 5704 5701 5698 5696 5694 5691 5689 5687 5685 5683 5680 5678 5676 5675 5673 5672 5670 5669 5668 5667 5666 5665 5665 5665 5664 5664 5663 5662 5661 5660
5728 5725 5723 5721 5719 5716 5714 5711 5709 5706 5703 5700 5698 5695 5693 5690 5687 5685 5682 5680 5678 5676 5674 5672 5669 5667 5665 5663 5661 5660 5659 5657 5656 5656 5655 5654 5654 5654 5653 5652 5652 5651 5650
5720 5717 5715 5712 5710 5707 5705 5702 5700 5697 5695 5692 5689 5687 5684 5681 5678 5676 5674 5672 5670 5668 5666 5663 5661 5659 5657 5654 5652 5650 5649 5647 5646 5645 5645 5644 5643 5643 5643 5642 5641 5640 5639
5711 5708 5706 5703 5701 5699 5696 5694 5692 5689 5687 5684 5681 5678 5676 5673 5670 5668 5666 5664 5661 5659 5657 5654 5652 5650 5648 5645 5643 5641 5639 5638 5637 5635 5635 5634 5633 5633 5632 5631 5631 5630 5628
5702 5700 5697 5695 5693 5690 5688 5686 5684 5681 5679 5676 5673 5670 5667 5665 5662 5660 5658 5655 5653 5651 5648 5646 5643 5641 5638 5636 5634 5632 5630 5628 5627 5626 5625 5624 5623 5623 5622 5621 5620 5619 5618